Location: Auttagershofen
(48.1940°N, 10.0237°E)
Time: 08:06:12
(UTC+00:00)

ARIANE 6 FM1 Upper Stage - Visible Passes

Search period start: 08 March 2026 00:00
Search period end: 18 March 2026 00:00
Orbit: 523 x 607 km, 62.0° (Epoch: 8 March)

Date Brightness Start Highest point End Pass type
(mag) Time Alt. Az. Time Alt. Az. Time Alt. Az.
8 Mar 4.8 04:22:33 10° S 04:25:56 25° ESE 04:29:17 10° ENE visible
9 Mar 4.1 04:21:53 10° S 04:25:39 35° SE 04:29:21 10° ENE visible
10 Mar 3.4 04:21:24 10° SSW 04:25:23 50° SE 04:29:18 10° NE visible
11 Mar 2.8 04:21:35 13° SSW 04:25:08 72° SE 04:29:10 10° NE visible
12 Mar 5.2 02:45:54 14° SE 02:46:27 14° ESE 02:48:37 10° E visible
12 Mar 2.5 04:21:55 18° SW 04:24:55 82° NW 04:28:58 10° NE visible
13 Mar 4.8 02:46:06 20° ESE 02:46:06 20° ESE 02:49:03 10° ENE visible
13 Mar 2.7 04:22:06 21° WSW 04:24:43 60° NW 04:28:42 10° NE visible
14 Mar 4.4 02:46:10 27° ESE 02:46:10 27° ESE 02:49:10 10° ENE visible
14 Mar 3.1 04:22:10 21° WSW 04:24:33 44° NW 04:28:25 10° NE visible
15 Mar 4.0 02:46:09 35° E 02:46:09 35° E 02:49:08 10° NE visible
15 Mar 3.5 04:22:09 20° W 04:24:23 34° NW 04:28:05 10° NNE visible
16 Mar 3.7 02:46:03 42° ENE 02:46:03 42° ENE 02:49:00 10° NE visible
16 Mar 3.9 04:22:02 17° W 04:24:15 27° NNW 04:27:44 10° NNE visible
17 Mar 3.6 02:45:53 46° NE 02:45:53 46° NE 02:48:46 10° NE visible
17 Mar 4.2 04:21:52 14° WNW 04:24:09 22° NNW 04:27:22 10° NNE visible
